Weather reports worldwide

Advertisment
Guadalajara, Spain (8226): temperature & dewpoint: 14.01.2021 14:00:00 - 20.01.2021 14:00:00 (CET)Guadalajara, Spain (8226): wind speed: 14.01.2021 14:00:00 - 20.01.2021 14:00:00 (CET)Guadalajara, Spain (8226): wind direction: 14.01.2021 14:00:00 - 20.01.2021 14:00:00 (CET)Guadalajara, Spain (8226): reduced air pressure: 14.01.2021 14:00:00 - 20.01.2021 14:00:00 (CET)Guadalajara, Spain (8226): visibility: 14.01.2021 14:00:00 - 20.01.2021 14:00:00 (CET)Guadalajara, Spain (8226): precipitation: 14.01.2021 14:00:00 - 20.01.2021 14:00:00 (CET)
Date & Time tt [°C] td [°C] ff [km/h] ff [kn] dd ppp [hPa] vv [km] rr [mm]
20.01.2021 14:00:00 4,7 3,7 21 11 S 1010,5 8 0,8
20.01.2021 13:00:00 5,1 3,6 18 10 S 1011,7 8 -
20.01.2021 12:00:00 4,5 3,0 21 11 S 1012,9 15 0,0
20.01.2021 11:00:00 4,5 2,7 21 11 SSW 1013,7 14 0,2
20.01.2021 10:00:00 4,3 2,6 26 14 S 1013,9 7 -
20.01.2021 09:00:00 4,4 1,9 26 14 S 1013,6 19 0,0
20.01.2021 08:00:00 4,0 1,7 22 12 S 1014,3 19 0,0
20.01.2021 07:00:00 3,5 1,2 18 10 S 1015,3 20 -
20.01.2021 06:00:00 3,2 0,6 5 3 SSW 1015,9 19 0,0
20.01.2021 05:00:00 2,3 0,7 5 3 SW 1017,2 20 0,0
20.01.2021 04:00:00 0,5 -1,4 4 2 NW 1019,1 18 -
20.01.2021 03:00:00 -0,3 -1,6 5 3 SSW 1019,7 18 0,0
20.01.2021 02:00:00 -0,2 -1,5 2 1 N 1020,4 18 0,0
20.01.2021 01:00:00 -0,4 -1,8 0 0 N 1021,7 18 -
20.01.2021 00:00:00 0,1 -1,5 0 0 N 1022,2 18 0,0
19.01.2021 23:00:00 1,8 -0,8 4 2 N 1021,7 20 0,0
19.01.2021 22:00:00 2,4 -0,2 9 5 S 1022,0 20 -
19.01.2021 21:00:00 3,3 -0,2 2 1 SSW 1022,6 20 0,0
19.01.2021 20:00:00 4,6 0,2 11 6 S 1022,3 20 0,0
19.01.2021 19:00:00 4,7 0,6 8 4 S 1022,4 20 -
19.01.2021 18:00:00 6,4 1,1 2 1 SSW 1021,9 20 0,0
19.01.2021 17:00:00 9,2 1,4 2 1 SSW 1021,4 20 0,0
19.01.2021 16:00:00 10,0 1,6 2 1 SSW 1021,7 20 -
19.01.2021 15:00:00 7,8 1,4 4 2 ESE 1022,9 20 0,0
19.01.2021 14:00:00 7,6 1,0 5 3 ESE 1023,6 20 0,0
19.01.2021 13:00:00 6,0 0,1 5 3 E 1025,1 18 -
19.01.2021 12:00:00 1,9 -0,8 9 5 NNW 1027,3 19 0,0
19.01.2021 11:00:00 1,6 -1,1 4 2 NE 1028,0 19 0,0
19.01.2021 10:00:00 -1,3 -2,6 2 1 NE 1029,0 20 -
19.01.2021 09:00:00 -3,4 -4,2 4 2 NNE 1029,6 16 0,0
19.01.2021 08:00:00 -3,6 -4,3 2 1 ENE 1029,7 15 0,0
19.01.2021 07:00:00 -3,4 -4,1 2 1 N 1029,6 20 -
19.01.2021 06:00:00 -3,2 -3,9 2 1 NNW 1029,5 14 0,0
19.01.2021 05:00:00 -3,0 -3,8 2 1 N 1029,8 19 0,0
19.01.2021 04:00:00 -2,6 -3,4 4 2 ENE 1030,3 17 -
19.01.2021 03:00:00 -2,6 -3,6 4 2 E 1030,3 19 0,0
19.01.2021 02:00:00 -2,0 -3,1 2 1 NNW 1030,4 19 0,0
19.01.2021 01:00:00 -1,3 -2,6 2 1 ENE 1030,5 20 -
19.01.2021 00:00:00 -0,9 -2,3 2 1 ESE 1030,6 20 0,0
18.01.2021 23:00:00 0,0 -1,6 2 1 N 1030,2 20 0,0
18.01.2021 22:00:00 0,5 -1,3 2 1 SE 1030,1 20 -
18.01.2021 21:00:00 1,2 -1,0 0 0 N 1030,0 20 0,0
18.01.2021 20:00:00 1,9 -0,7 0 0 N 1029,5 20 0,0
18.01.2021 19:00:00 3,8 -0,2 2 1 E 1028,6 19 -
18.01.2021 18:00:00 7,8 1,2 2 1 SE 1026,8 20 0,0
18.01.2021 17:00:00 9,9 1,3 4 2 E 1025,7 20 0,0
18.01.2021 16:00:00 10,8 1,3 2 1 SSW 1025,6 20 -
18.01.2021 15:00:00 10,0 1,1 4 2 ESE 1026,3 20 0,0
18.01.2021 14:00:00 9,4 1,1 2 1 NW 1027,2 20 0,0
18.01.2021 13:00:00 7,1 0,1 4 2 ESE 1028,5 20 -
18.01.2021 12:00:00 3,6 -0,6 2 1 SSE 1030,5 20 0,0
18.01.2021 11:00:00 3,3 -1,5 4 2 WSW 1030,4 20 0,0
18.01.2021 10:00:00 -0,3 -2,5 2 1 N 1031,4 20 -
18.01.2021 09:00:00 -2,4 -3,7 2 1 SW 1031,5 20 0,0
18.01.2021 08:00:00 -2,3 -3,3 2 1 N 1031,4 20 0,0
18.01.2021 07:00:00 -2,6 -4,0 4 2 NE 1031,3 20 -
18.01.2021 06:00:00 -2,3 -3,7 2 1 N 1030,8 20 0,0
18.01.2021 05:00:00 -1,8 -3,5 2 1 E 1030,7 20 0,0
18.01.2021 04:00:00 -1,5 -3,1 5 3 ESE 1031,0 20 -
18.01.2021 03:00:00 -1,8 -3,7 2 1 E 1031,4 20 0,0
18.01.2021 02:00:00 -1,5 -4,0 2 1 W 1031,4 20 0,0
18.01.2021 01:00:00 -1,1 -4,1 2 1 SW 1031,5 20 -
18.01.2021 00:00:00 -0,9 -5,0 4 2 NE 1031,8 20 0,0
17.01.2021 23:00:00 -0,5 -5,1 0 0 N 1031,5 20 0,0
17.01.2021 22:00:00 0,0 -5,6 2 1 ENE 1031,3 20 -
17.01.2021 21:00:00 0,4 -5,0 2 1 SSE 1031,3 20 0,0
17.01.2021 20:00:00 1,2 -4,5 2 1 NE 1031,1 20 0,0
17.01.2021 19:00:00 2,8 -3,8 4 2 E 1030,3 19 -
17.01.2021 18:00:00 6,6 -4,2 5 3 S 1028,7 20 0,0
17.01.2021 17:00:00 9,1 -4,1 4 2 E 1027,7 20 0,0
17.01.2021 16:00:00 10,2 -3,5 2 1 SSW 1027,3 20 -
17.01.2021 15:00:00 8,7 -5,6 5 3 E 1028,1 20 0,0
17.01.2021 14:00:00 8,3 -4,5 4 2 WNW 1028,6 20 0,0
17.01.2021 13:00:00 6,6 -4,8 4 2 E 1030,1 20 -
17.01.2021 12:00:00 1,9 -6,4 4 2 E 1032,8 20 0,0
17.01.2021 11:00:00 0,8 -7,2 2 1 N 1032,9 20 0,0
17.01.2021 10:00:00 -3,3 -8,6 2 1 SSE 1033,8 20 -
17.01.2021 09:00:00 -5,4 -9,8 2 1 NNW 1034,0 20 0,0
17.01.2021 08:00:00 -5,7 -9,9 4 2 E 1034,1 20 0,0
17.01.2021 07:00:00 -5,3 -9,0 4 2 N 1033,6 20 -
17.01.2021 06:00:00 -4,8 -8,6 4 2 NNE 1033,3 20 0,0
17.01.2021 05:00:00 -4,5 -8,8 4 2 NE 1033,1 20 0,0
17.01.2021 04:00:00 -4,0 -8,5 2 1 E 1033,3 20 -
17.01.2021 03:00:00 -3,1 -7,4 5 3 ENE 1032,9 20 0,0
17.01.2021 02:00:00 -3,2 -6,8 4 2 SW 1033,4 20 0,0
17.01.2021 01:00:00 -2,5 -6,5 2 1 NE 1033,7 20 -
17.01.2021 00:00:00 -1,8 -6,0 2 1 NNW 1033,5 20 0,0
16.01.2021 23:00:00 -1,3 -5,5 4 2 ENE 1033,1 19 0,0
16.01.2021 22:00:00 -0,8 -5,6 4 2 NE 1032,9 20 -
16.01.2021 21:00:00 -0,2 -5,0 2 1 NW 1032,3 13 0,0
16.01.2021 20:00:00 1,0 -4,8 5 3 SSW 1031,6 20 0,0
16.01.2021 19:00:00 2,3 -3,2 5 3 SE 1031,0 19 -
16.01.2021 18:00:00 6,3 -1,6 4 2 S 1029,1 20 0,0
16.01.2021 17:00:00 9,7 -1,7 4 2 SW 1027,5 20 0,0
16.01.2021 16:00:00 10,4 -3,0 4 2 NNE 1026,8 19 -
16.01.2021 15:00:00 9,9 -2,1 4 2 NNE 1027,1 20 0,0
16.01.2021 14:00:00 9,3 -3,6 2 1 N 1027,8 20 0,0
16.01.2021 13:00:00 8,1 -4,4 4 2 SSW 1028,7 20 -
16.01.2021 12:00:00 3,4 -4,3 2 1 WSW 1030,8 20 0,0
16.01.2021 11:00:00 2,6 -4,6 2 1 WNW 1030,7 20 0,0
16.01.2021 10:00:00 -1,2 -6,0 2 1 ESE 1031,3 20 -
16.01.2021 09:00:00 -4,3 -7,4 4 2 E 1031,7 20 0,0
16.01.2021 08:00:00 -5,2 -7,5 4 2 S 1031,7 20 0,0
16.01.2021 07:00:00 -4,8 -7,2 2 1 NW 1031,4 20 -
16.01.2021 06:00:00 -3,7 -6,0 2 1 WNW 1030,7 20 0,0
16.01.2021 05:00:00 -4,3 -6,8 2 1 NNE 1030,9 20 0,0
16.01.2021 04:00:00 -3,8 -5,8 0 0 N 1030,6 20 -
16.01.2021 03:00:00 -3,7 -5,5 4 2 SW 1030,7 20 0,0
16.01.2021 02:00:00 -3,4 -5,3 4 2 SE 1030,6 20 0,0
16.01.2021 01:00:00 -3,3 -5,3 2 1 ENE 1031,0 20 -
16.01.2021 00:00:00 -2,5 -4,5 2 1 NW 1031,0 19 0,0
15.01.2021 23:00:00 -1,9 -4,4 5 3 S 1030,6 20 0,0
15.01.2021 22:00:00 -1,5 -3,7 2 1 E 1030,3 19 -
15.01.2021 21:00:00 -0,7 -2,8 0 0 N 1030,1 15 0,0
15.01.2021 20:00:00 0,2 -2,3 4 2 SE 1030,0 17 0,0
15.01.2021 19:00:00 1,8 -1,8 2 1 S 1029,0 19 -
15.01.2021 18:00:00 5,4 -1,1 4 2 S 1027,5 20 0,0
15.01.2021 17:00:00 7,6 -0,6 8 4 SW 1026,7 20 0,0
15.01.2021 16:00:00 9,3 -0,9 4 2 SSW 1026,3 20 -
15.01.2021 15:00:00 7,1 -0,9 5 3 SW 1027,1 20 0,0
15.01.2021 14:00:00 7,1 -0,9 5 3 SW 1027,6 20 0,0
15.01.2021 13:00:00 6,4 -0,6 4 2 E 1028,4 20 -
15.01.2021 12:00:00 3,0 -1,2 2 1 SE 1030,2 20 0,0
15.01.2021 11:00:00 2,5 -1,5 4 2 N 1030,4 20 0,0
15.01.2021 10:00:00 -0,8 -2,7 5 3 ENE 1031,2 20 -
15.01.2021 09:00:00 -3,4 -5,0 4 2 ENE 1031,5 20 0,0
15.01.2021 08:00:00 -3,0 -4,3 4 2 ENE 1030,9 20 0,0
15.01.2021 07:00:00 -3,7 -4,2 2 1 ENE 1030,9 20 -
15.01.2021 06:00:00 -3,7 -4,4 2 1 ESE 1030,8 20 0,0
15.01.2021 05:00:00 -3,8 -5,2 4 2 ESE 1030,9 20 0,0
15.01.2021 04:00:00 -1,9 -3,5 2 1 W 1030,4 20 -
15.01.2021 03:00:00 -1,8 -2,9 5 3 S 1030,5 20 0,0
15.01.2021 02:00:00 -0,5 -1,6 5 3 E 1029,7 20 0,0
15.01.2021 01:00:00 -0,2 -1,5 9 5 NE 1029,9 20 -
15.01.2021 00:00:00 -0,4 -1,7 2 1 S 1030,2 20 0,0
14.01.2021 23:00:00 0,0 -2,1 4 2 ENE 1030,0 20 0,0
14.01.2021 22:00:00 -1,2 -4,5 2 1 SW 1030,2 20 -
14.01.2021 21:00:00 -0,9 -5,3 2 1 S 1030,0 20 0,0
14.01.2021 20:00:00 -0,6 -5,6 5 3 ENE 1029,4 20 0,0
14.01.2021 19:00:00 -0,2 -5,4 2 1 ENE 1029,0 20 -
14.01.2021 18:00:00 3,5 -3,8 2 1 S 1027,6 18 0,0
14.01.2021 17:00:00 7,0 -4,4 4 2 NNW 1026,1 20 0,0
14.01.2021 16:00:00 6,8 -3,5 4 2 E 1025,8 18 -
14.01.2021 15:00:00 8,3 -5,6 2 1 SW 1025,3 20 0,0
14.01.2021 14:00:00 5,6 -5,4 2 1 NW 1027,0 16 0,0

tt = temperature
td = dewpoint
ff = wind speed
dd = wind direction
ppp = reduced air pressure
vv = visibility
rr = precipitation

Next stations